Theta_e
327 328 329 330 331 331 332 332 331 330 327 324 322 320 320 320 321 321 321 321 320 321 321 321 322 322 324 325 325 325 323 323 324 323 323 324 323 324 325 325 325 325 325 325 325 325 325 326 326 326 326 325 326 326 326 326 326 326 326 326 326 326 326 326 326 327 327 327 328 328 329 329 329 330 329 329 330 330 330 330 330 330 330 330 329
329 329 329 330 331 331 332 332 332 330 327 325 324 323 322 322 322 322 322 323 322 322 321 320 322 322 323 324 325 325 323 323 323 324 324 324 323 324 325 325 324 324 324 324 323 324 324 325 324 325 325 325 325 325 325 325 326 326 326 326 326 326 326 326 325 326 327 327 327 327 329 329 328 329 329 328 328 329 329 329 329 329 329 328 328
332 329 328 330 331 331 332 332 332 331 328 326 325 324 324 323 322 322 323 323 321 321 320 318 320 322 323 324 326 326 324 323 324 324 324 324 324 325 325 326 325 324 324 324 324 323 324 324 323 324 324 325 325 325 325 324 325 325 326 326 326 326 326 325 326 326 327 327 326 327 329 331 331 328 328 328 328 328 328 328 328 328 327 327 326
332 330 329 329 330 331 331 331 332 332 329 327 325 324 323 321 319 320 322 324 321 321 320 318 320 322 323 324 326 325 324 324 324 324 325 324 324 325 326 326 325 325 324 324 323 323 323 323 323 324 324 324 324 324 324 324 325 325 325 325 325 325 325 325 326 327 328 327 327 326 325 330 334 329 326 327 327 328 328 327 326 326 325 325 325
330 330 329 328 329 330 331 331 332 331 330 328 325 326 323 319 320 320 320 322 321 321 320 320 321 323 324 324 325 324 323 324 323 324 324 324 324 325 325 325 325 324 324 323 323 322 322 322 322 323 323 323 323 323 324 324 324 325 325 325 325 325 325 325 327 327 328 328 327 327 325 329 333 327 326 327 327 328 328 326 325 324 324 323 323
329 329 329 328 328 330 330 331 331 330 330 328 326 327 323 317 320 322 321 321 321 321 320 321 323 324 324 324 324 324 323 323 323 324 324 324 325 325 325 325 324 324 324 323 323 322 321 322 322 322 322 323 324 324 324 324 324 325 325 326 325 326 326 326 326 326 328 328 327 327 327 328 329 326 326 328 327 328 328 327 325 323 322 322 321
330 328 328 328 328 329 329 331 332 329 329 328 326 328 325 316 319 324 322 321 322 321 319 320 323 325 325 324 324 324 322 322 323 324 324 325 325 325 325 325 324 324 323 323 322 321 321 321 321 322 322 323 323 323 323 324 325 326 326 326 326 326 326 326 326 326 327 327 328 328 327 327 327 326 326 328 328 328 328 328 325 321 320 320 319
330 330 328 327 328 329 329 330 332 330 328 328 327 328 326 319 321 325 323 322 322 322 320 319 322 324 324 324 324 325 322 321 323 324 324 325 325 325 324 324 324 323 322 321 321 320 320 321 322 322 323 323 323 323 324 324 325 326 326 326 326 326 326 326 326 326 326 327 327 327 327 327 327 326 326 327 328 328 328 327 323 320 319 318 317
330 330 328 327 328 329 330 330 331 331 330 329 329 328 327 325 324 325 324 323 323 323 321 320 322 323 323 323 324 324 322 321 323 323 324 325 325 324 324 324 323 322 321 320 320 320 320 322 322 323 323 323 323 323 323 324 324 324 325 325 326 326 326 326 325 326 326 326 327 327 326 326 326 324 324 326 327 328 328 326 323 321 319 317 316
329 329 327 327 328 329 329 330 331 332 331 331 330 328 327 327 325 325 325 323 323 323 322 321 323 322 322 323 323 323 321 321 322 323 324 325 325 324 323 323 323 321 320 320 320 320 320 321 322 322 322 322 322 322 322 322 322 323 323 324 324 325 325 325 325 325 325 326 326 326 325 324 324 323 323 324 325 326 327 326 324 323 321 319 315
329 328 327 326 328 328 329 330 330 332 332 331 330 328 328 327 326 325 325 324 323 323 322 322 323 322 322 323 322 321 321 320 322 323 324 324 324 324 324 323 322 321 320 320 319 319 319 320 321 322 322 322 322 321 321 321 321 321 322 322 323 323 324 324 325 324 324 325 325 325 325 324 324 324 323 323 323 325 326 325 324 323 322 320 316
329 329 328 326 326 327 328 329 330 331 331 331 331 329 328 327 326 326 325 324 323 323 323 322 322 323 323 324 323 322 321 320 322 323 323 324 324 324 323 323 322 321 321 320 319 319 319 320 320 322 323 322 321 321 320 320 320 320 320 320 320 321 322 323 324 324 323 323 324 324 324 324 324 324 324 323 322 324 325 324 322 322 321 320 317
328 329 329 326 325 326 327 328 330 331 331 331 331 330 329 328 327 326 325 324 323 323 323 323 322 322 323 324 324 323 320 320 321 322 323 324 324 324 323 323 322 321 320 319 318 318 319 319 320 322 322 322 321 320 320 319 319 319 319 319 319 319 319 320 322 323 323 322 322 322 323 323 323 324 325 323 321 322 324 322 321 321 321 320 318
328 328 329 327 325 326 327 327 328 330 330 330 330 331 330 328 328 327 326 324 323 323 323 323 322 321 322 323 324 323 321 320 320 320 322 323 324 323 323 322 322 320 319 319 318 318 319 319 321 322 322 321 321 320 320 319 318 319 319 318 318 318 317 318 320 321 321 321 321 321 321 322 322 321 323 323 321 322 323 321 321 321 320 319 318
328 328 328 326 325 326 326 327 328 329 330 330 330 330 330 329 328 328 326 324 323 323 323 324 322 320 321 323 323 322 321 321 320 320 322 323 323 323 322 321 320 318 318 318 318 318 319 319 321 322 321 321 320 320 320 319 318 318 318 318 317 317 317 317 318 319 319 321 321 320 319 319 320 320 321 323 322 322 322 321 320 320 318 317 316
327 328 328 325 325 327 326 326 328 328 329 329 330 330 329 329 328 328 327 325 323 323 323 323 323 321 321 322 323 322 321 321 320 321 322 323 322 322 321 320 318 316 316 316 317 318 318 319 321 322 322 320 319 319 319 318 317 317 317 316 316 316 316 316 316 317 318 319 320 320 318 318 319 318 320 322 322 322 322 321 320 319 319 317 315
328 328 327 325 324 326 326 327 327 327 328 329 329 329 329 329 328 328 327 325 323 323 323 323 323 321 321 321 322 321 321 320 320 321 322 322 322 321 320 318 317 316 314 314 316 318 318 319 321 322 321 320 319 318 318 317 317 316 315 315 314 314 315 315 315 316 316 317 317 318 317 316 317 318 320 322 323 322 321 321 320 318 318 317 316
328 327 325 324 324 325 326 326 327 328 328 328 329 329 329 329 328 328 327 326 324 323 322 323 323 322 321 321 322 321 321 320 320 320 321 321 321 320 319 318 316 315 314 313 315 318 318 318 320 321 320 319 318 318 317 316 316 315 314 314 313 314 314 314 314 314 315 315 315 315 315 315 316 318 320 322 323 323 322 321 320 318 318 316 315
329 328 327 324 323 324 325 326 327 327 328 329 329 329 329 329 328 328 328 327 326 324 323 322 322 322 321 321 322 322 322 321 320 320 321 321 320 319 318 317 315 315 314 313 315 318 318 318 320 320 319 318 318 317 316 315 314 314 313 313 313 313 314 313 313 313 314 314 314 314 314 314 315 316 319 320 321 323 322 321 320 320 318 315 314
331 329 328 324 322 324 325 325 327 327 328 328 328 328 328 328 328 328 328 327 326 324 323 322 322 322 322 322 322 323 323 321 320 320 320 320 320 319 318 316 315 314 313 314 316 318 318 317 319 319 318 317 317 315 314 314 313 313 313 313 312 313 313 313 313 312 313 312 312 313 312 312 313 313 315 317 317 320 322 322 321 321 318 315 314
332 331 329 324 322 324 325 325 326 326 326 327 327 327 327 327 327 327 327 327 325 324 324 323 322 322 322 322 322 322 322 321 320 320 321 320 319 318 317 316 315 314 313 314 317 318 318 317 318 318 317 316 315 314 313 313 312 312 312 312 312 312 313 313 312 312 312 311 311 311 310 310 310 310 311 312 313 314 317 320 322 321 317 314 313
333 333 329 322 321 323 324 325 325 325 326 325 326 326 326 327 327 327 327 327 326 325 325 324 322 322 322 322 322 322 322 320 319 320 321 321 319 318 317 316 315 313 313 314 316 317 318 317 318 318 316 315 314 313 312 311 311 311 312 312 312 312 312 312 312 312 311 310 309 309 309 308 308 308 308 308 309 311 312 316 320 320 317 313 312
329 330 325 320 322 322 323 324 324 324 325 325 325 325 326 326 326 327 327 327 327 326 325 325 323 322 322 322 322 322 321 320 319 319 320 321 320 318 316 316 315 313 313 314 315 316 316 316 317 317 315 314 313 312 311 310 310 310 310 310 310 310 310 311 312 311 310 309 309 308 308 307 306 307 306 307 309 311 312 315 317 317 315 312 311
327 326 322 320 322 322 322 323 323 324 324 324 325 325 325 326 326 327 327 327 327 327 325 325 324 323 322 322 322 322 321 320 318 318 320 321 319 317 316 315 314 313 313 313 315 315 314 315 315 315 314 313 311 310 310 310 309 309 309 308 308 307 306 307 310 311 310 309 309 308 307 306 306 306 306 307 310 312 312 314 314 313 312 310 310
331 331 327 324 323 321 321 322 322 323 324 323 324 325 325 326 326 326 326 327 327 326 326 326 325 323 322 322 322 322 321 320 318 318 319 320 319 317 316 315 314 313 312 313 314 314 314 314 314 314 313 312 310 309 309 309 309 309 308 308 307 303 300 302 308 310 309 308 308 308 307 305 305 305 305 307 309 309 309 310 310 309 308 309 309
333 333 331 329 325 320 320 322 322 322 323 323 324 324 325 325 326 326 326 326 326 326 326 325 325 323 322 322 322 321 321 320 318 318 319 320 318 316 315 314 313 313 312 312 313 314 313 313 313 313 312 310 309 308 308 308 308 308 308 306 302 298 298 301 306 309 309 308 307 307 307 305 305 305 304 306 307 307 306 307 307 307 307 307 307
336 336 333 331 328 322 319 321 322 321 322 323 323 324 324 325 326 326 326 326 326 326 325 325 324 323 322 322 322 321 322 320 318 319 319 319 317 316 315 314 313 313 312 312 312 313 313 312 312 312 311 309 309 308 307 307 307 307 306 300 296 297 301 303 306 308 308 307 307 306 306 305 304 304 304 304 305 305 305 305 305 305 305 305 306
336 337 336 337 335 325 319 320 322 321 321 322 323 323 324 324 325 325 326 326 326 326 325 324 324 323 322 322 322 322 322 321 319 319 319 319 317 315 315 314 313 313 312 312 311 312 312 312 312 311 310 309 308 308 307 307 307 307 302 295 294 298 302 304 305 306 306 306 306 305 305 304 303 303 303 303 304 304 304 304 303 303 303 303 304
334 335 337 341 338 327 320 320 322 321 321 322 323 324 324 324 325 325 326 326 326 325 325 324 323 323 323 323 322 322 321 321 319 318 319 319 317 315 315 314 313 313 312 312 311 312 312 311 311 310 309 309 308 308 308 307 307 307 301 294 293 296 298 300 301 302 303 303 303 303 303 303 302 302 302 302 302 303 303 303 302 302 302 302 302
335 336 338 340 334 322 319 322 322 321 322 322 323 324 324 325 325 325 326 326 326 325 324 324 323 323 323 323 322 322 321 321 319 318 319 319 316 315 314 314 314 313 312 312 311 312 312 311 311 310 309 308 308 308 308 307 307 307 302 294 293 294 294 295 296 297 299 301 301 302 302 301 301 302 302 302 302 301 301 301 301 301 301 301 301
341 340 339 339 330 319 318 323 323 323 323 323 324 325 325 326 326 326 326 326 325 325 324 324 324 323 323 323 322 321 321 321 319 318 318 318 316 315 315 314 314 313 312 312 311 311 312 310 310 310 308 308 308 308 308 307 307 307 303 295 292 293 293 293 293 294 295 297 299 301 301 301 301 301 301 301 301 300 300 300 300 300 299 299 299
343 339 339 341 333 322 319 322 323 324 325 323 324 326 325 326 327 326 326 326 325 325 324 323 324 323 323 322 322 321 321 321 320 318 318 318 316 315 315 314 314 313 313 312 310 310 311 310 309 309 308 308 308 308 308 307 306 306 303 296 292 292 293 292 292 292 292 293 294 296 297 298 299 300 300 300 300 300 300 300 300 300 299 299 298
337 337 338 337 328 321 319 321 323 324 325 324 324 325 326 327 327 327 327 326 325 324 323 323 324 323 323 322 322 321 321 321 320 318 317 317 316 315 315 314 313 313 313 312 310 310 311 311 310 309 309 308 308 308 307 307 307 305 303 298 294 293 293 294 293 293 292 292 291 292 292 293 294 295 296 297 298 299 299 298 298 297 296 296 296
332 337 333 325 320 321 322 322 322 323 325 325 325 325 326 326 326 327 327 326 326 324 323 323 323 323 323 322 321 321 321 321 320 318 317 316 316 316 315 314 314 313 313 312 310 310 311 311 310 309 309 308 308 308 307 307 307 305 302 299 295 293 294 295 295 294 294 294 293 291 291 291 291 291 291 292 293 294 294 293 293 292 292 291 292
331 334 327 319 319 323 323 322 323 323 324 325 325 325 326 326 326 326 326 326 326 325 324 323 323 323 322 321 321 321 321 320 319 318 317 316 316 316 315 315 314 313 313 312 310 310 310 310 310 310 309 308 308 308 307 307 307 304 301 299 297 295 297 297 296 296 296 297 295 293 291 291 291 290 290 290 290 290 290 290 290 290 290 290 291
322 323 320 318 320 321 320 320 321 321 321 323 324 325 325 325 326 325 325 326 325 324 324 323 322 322 322 322 322 321 320 320 319 318 317 317 316 316 316 315 314 313 313 312 311 311 310 311 310 310 309 308 308 307 306 306 306 304 300 298 297 298 300 299 297 296 297 299 298 295 293 292 292 292 291 290 290 290 290 290 289 289 290 290 290
316 317 317 318 319 318 318 319 319 319 320 321 322 325 325 325 325 325 325 325 324 324 324 323 323 323 322 322 322 321 320 320 318 318 317 317 317 317 316 316 315 314 313 312 311 311 311 311 310 310 310 308 308 307 306 305 306 305 300 298 298 300 301 301 298 297 298 300 300 297 295 294 294 295 294 291 290 290 290 290 290 290 291 291 292
316 317 317 317 318 318 318 318 317 318 318 318 320 323 324 325 324 324 324 324 324 324 324 323 323 323 323 322 322 321 320 319 318 318 318 317 317 316 315 315 315 314 314 312 311 311 311 311 310 310 310 309 308 308 307 305 305 305 302 299 299 301 302 301 299 298 299 300 300 298 296 296 296 296 296 294 292 291 291 291 291 292 292 293 293
316 316 316 316 317 317 317 317 316 317 317 317 318 320 322 324 324 323 323 323 323 324 324 324 324 324 323 322 322 321 321 320 319 319 318 317 316 315 315 315 315 315 314 313 312 311 311 310 310 310 310 309 308 308 307 305 305 305 303 300 299 301 303 302 300 299 299 300 301 299 297 296 296 297 297 296 295 294 293 292 292 293 293 294 294
316 316 315 315 315 316 317 317 316 316 316 317 317 318 320 322 323 323 323 323 324 324 324 323 323 323 322 322 321 321 320 320 320 320 318 316 317 316 316 316 316 315 314 313 312 312 311 311 310 310 309 309 308 309 308 306 304 305 305 302 299 300 302 303 301 300 299 300 301 300 298 297 296 297 297 297 297 296 295 294 293 294 294 294 295
316 316 315 315 315 315 316 316 316 316 316 316 317 317 318 320 322 323 323 323 324 324 323 323 322 322 322 321 321 321 320 320 320 320 318 317 317 317 317 317 317 315 314 313 312 312 311 311 310 309 309 309 308 309 309 306 304 304 305 304 301 300 301 303 302 301 300 299 300 301 300 298 297 297 297 298 298 297 296 295 294 294 295 295 296
316 316 315 315 314 316 316 316 316 316 316 316 317 317 317 318 320 320 320 321 322 322 323 322 321 321 321 321 321 321 320 320 320 319 318 317 317 316 317 317 317 315 314 313 312 312 311 310 310 309 309 309 309 309 309 307 304 303 304 305 304 303 302 303 303 302 301 300 300 300 300 298 298 298 298 298 298 297 297 296 295 295 296 296 296
316 315 315 314 314 315 316 316 316 316 316 316 316 316 317 317 317 318 318 318 319 320 322 322 322 321 321 321 321 321 320 320 319 319 318 318 317 316 316 316 316 315 313 311 311 311 310 310 309 309 308 308 308 309 309 308 305 303 303 304 304 304 303 303 302 302 301 300 300 300 299 298 297 297 298 298 298 298 298 297 296 296 296 296 296
313 313 314 313 313 314 315 315 316 316 316 316 316 316 316 316 316 317 317 317 317 318 320 321 322 322 322 321 321 321 320 320 319 318 318 317 317 316 315 315 315 314 312 311 310 310 309 309 309 309 308 308 308 309 309 309 306 303 302 302 303 303 303 303 303 302 301 300 299 299 299 298 297 297 297 298 298 298 298 298 296 296 295 294 294
312 313 313 312 313 314 315 315 316 316 316 316 316 316 316 316 316 316 316 316 317 317 318 319 320 321 322 321 321 320 320 320 319 318 318 317 316 316 315 314 313 312 312 312 310 309 309 309 309 309 309 308 308 308 309 309 307 304 301 301 302 303 303 302 303 302 300 299 299 299 299 298 296 296 297 297 298 298 298 298 297 296 295 294 294
313 313 313 314 314 315 314 315 315 315 315 315 315 315 315 315 315 315 316 316 317 317 317 318 319 320 321 321 321 320 320 319 319 318 318 317 317 316 315 314 313 312 312 312 310 310 310 309 308 309 309 309 308 308 308 309 308 304 301 300 301 302 302 302 302 301 300 300 300 299 299 298 297 296 295 296 297 297 296 297 297 296 295 294 294
311 311 312 313 313 313 313 314 313 313 313 314 314 314 314 314 314 314 315 316 316 317 317 317 318 318 319 320 320 320 320 319 319 318 317 316 316 315 315 313 312 311 311 310 310 310 309 308 308 309 308 308 308 308 308 308 308 306 303 301 301 302 302 302 301 301 300 300 300 300 299 298 297 296 294 294 295 295 294 294 296 296 295 294 294
308 309 309 309 309 310 310 310 310 311 311 312 313 313 312 312 312 313 314 315 315 316 317 317 317 318 318 320 320 320 320 319 318 318 318 317 316 315 314 314 313 313 312 311 310 310 310 310 309 309 308 307 307 308 308 308 308 308 306 303 300 301 302 302 301 301 300 300 301 300 299 297 296 295 294 293 293 293 291 291 293 295 294 294 294
306 306 306 307 307 307 307 307 308 309 308 307 308 308 308 308 309 310 311 313 313 314 315 316 317 317 318 318 319 320 320 319 318 319 319 318 317 317 316 316 316 315 315 314 313 313 313 313 312 310 308 307 306 308 310 309 308 308 308 306 303 301 300 301 302 302 301 301 300 300 299 298 296 294 293 291 291 290 290 290 291 292 293 293 294
305 305 305 305 305 305 305 305 305 307 307 305 304 305 305 306 306 307 309 310 311 313 314 314 316 317 317 318 318 319 319 319 319 319 318 318 318 317 317 317 317 317 316 316 315 315 316 316 314 312 310 310 310 312 313 310 308 308 308 308 307 305 301 300 301 302 302 302 301 300 299 298 296 295 293 291 290 289 289 289 289 290 291 292 293
305 305 305 305 305 305 305 304 304 306 306 305 304 304 304 304 305 306 306 308 310 311 312 313 314 315 316 316 317 318 318 319 319 319 319 318 318 317 317 317 316 317 317 316 315 315 315 315 315 314 313 312 313 313 313 311 310 309 308 308 308 308 305 301 300 301 302 302 301 300 299 298 297 295 294 293 291 289 289 289 289 289 290 292 293
Wind_Speed
7 10 10 9 8 7 6 5 3 4 5 6 7 6 6 6 6 5 5 5 4 3 3 2 2 2 2 3 3 4 6 6 7 9 10 12 13 13 13 13 14 13 13 13 13 13 13 12 12 12 11 10 9 9 8 7 6 5 4 4 4 5 5 5 5 2 5 10 11 13 14 14 14 13 13 12 10 9 8 8 8 8 8 8 7
3 7 9 10 9 8 7 6 4 3 4 5 6 5 5 5 5 5 5 5 5 5 4 3 2 1 1 1 2 3 4 5 5 7 8 9 11 11 11 12 13 14 14 14 14 14 14 14 14 14 14 12 11 9 8 8 7 6 5 5 5 5 6 7 6 5 1 5 6 7 10 13 15 16 17 15 12 10 10 10 10 10 11 11 9
2 4 8 11 10 9 9 7 6 5 4 4 4 4 4 4 4 4 4 5 5 5 5 4 3 2 1 1 2 3 2 3 5 6 6 7 8 8 8 9 11 12 13 13 13 14 14 14 14 14 14 14 13 12 11 10 8 7 6 6 6 6 7 7 7 6 2 2 4 2 2 4 7 11 15 15 13 12 12 12 11 12 11 10 9
4 5 6 10 11 11 11 10 8 7 6 5 5 4 4 4 4 3 2 3 4 5 5 4 2 1 1 2 4 3 2 3 4 4 4 5 6 6 6 8 9 11 13 13 13 13 13 13 13 12 12 13 13 13 13 12 11 9 8 7 7 7 6 6 7 6 3 1 2 2 1 1 1 3 7 12 12 12 13 13 13 12 12 13 13
6 7 7 9 11 12 13 12 10 9 9 8 7 5 5 4 4 3 2 2 3 3 3 3 2 1 1 4 5 4 4 3 2 2 3 4 5 5 6 7 9 11 12 12 12 12 12 12 11 11 11 11 11 12 12 12 11 11 10 9 9 9 7 6 6 6 5 2 2 1 1 1 0 1 2 7 9 11 13 14 16 16 17 18 19
6 8 7 8 11 12 14 14 12 11 12 11 9 7 6 5 4 2 2 1 1 2 2 2 2 2 1 3 4 4 4 3 2 3 2 3 3 4 4 6 8 10 12 12 12 12 12 11 10 10 11 11 11 11 10 10 10 11 11 10 10 9 9 8 7 7 5 4 3 2 1 1 3 4 1 2 6 9 11 13 16 19 20 21 21
6 7 7 9 12 13 15 17 15 14 13 12 10 9 8 7 6 5 3 1 2 2 3 3 3 2 2 2 2 2 2 2 3 3 2 2 3 2 3 4 7 9 11 12 12 12 12 11 10 10 10 10 10 11 11 11 10 10 10 10 10 9 9 9 8 8 6 4 5 3 3 2 7 6 3 3 3 5 9 12 15 18 21 22 22
7 7 8 11 14 16 18 19 18 16 14 13 13 12 11 9 8 7 4 3 3 3 3 4 4 4 3 2 2 1 1 1 3 3 2 3 3 2 2 3 6 8 10 11 11 11 11 10 10 10 9 10 10 11 11 11 11 10 10 10 10 10 10 9 8 8 7 6 5 4 4 1 7 5 4 7 5 3 5 9 15 20 22 22 22
8 8 9 12 16 19 20 19 18 17 16 15 15 15 13 10 8 7 6 5 5 4 4 5 5 4 3 2 2 2 1 1 2 2 2 2 2 1 2 3 5 8 10 11 10 10 10 9 9 8 8 8 9 9 9 10 10 10 10 10 10 10 10 10 9 8 7 6 5 4 4 2 1 1 2 4 4 4 4 5 10 16 18 20 21
8 9 11 15 18 21 19 17 18 19 18 17 17 16 14 11 10 9 7 7 6 5 5 6 6 5 3 2 2 2 2 2 3 3 3 3 3 2 2 2 3 6 9 9 9 9 9 9 8 8 7 7 7 7 8 9 9 10 10 9 9 9 9 9 8 8 7 6 6 5 4 4 1 0 1 3 5 3 4 5 8 10 11 13 18
7 8 10 14 16 17 17 17 18 19 19 18 17 16 14 13 13 12 9 8 8 7 6 7 7 5 4 4 3 3 3 4 5 6 6 5 5 4 3 3 3 5 6 7 8 8 8 8 8 7 7 7 6 7 8 9 9 9 9 9 9 9 8 8 7 7 7 7 6 6 6 4 3 2 5 6 5 4 5 4 6 12 13 12 15
7 7 8 10 10 12 15 17 18 19 20 19 18 16 15 15 15 14 11 10 10 9 8 8 8 7 6 5 4 4 4 5 6 7 7 7 7 6 5 4 4 4 6 6 7 7 7 7 8 7 7 7 6 7 8 8 9 9 10 10 10 9 9 9 8 7 7 7 7 7 7 6 5 3 4 10 10 9 8 5 4 9 11 12 13
6 6 6 7 9 12 15 18 19 20 21 21 19 18 17 17 17 15 13 12 12 11 10 9 9 8 7 6 5 4 4 5 6 7 7 7 8 7 6 5 4 5 6 6 7 7 6 7 7 6 6 6 6 6 7 8 8 9 10 10 10 10 10 9 8 7 7 7 7 6 6 6 6 5 2 5 11 12 10 6 5 8 8 9 11
5 6 6 6 9 14 16 18 20 22 23 23 21 19 19 19 19 17 15 14 14 13 12 11 9 8 7 7 6 4 5 5 5 6 6 7 7 6 6 5 4 5 5 6 7 6 6 7 7 5 4 5 5 6 7 8 9 9 8 9 10 10 10 9 7 6 6 6 5 5 5 6 6 6 5 1 9 14 14 9 7 9 8 8 8
4 5 5 7 12 15 17 18 21 23 24 23 22 21 20 20 20 19 17 16 15 15 14 13 10 9 8 7 6 5 5 6 5 5 5 7 7 6 5 4 3 4 5 6 6 6 5 6 6 5 4 5 6 6 6 7 8 8 8 8 9 9 9 8 6 5 5 4 4 4 5 5 5 5 4 1 8 15 16 14 12 8 5 4 5
4 5 5 8 12 15 17 18 20 22 23 24 23 22 21 21 21 21 19 18 17 16 16 14 11 9 8 8 7 6 6 6 5 5 6 6 6 5 4 3 3 4 6 7 7 6 5 6 6 5 5 5 6 6 6 7 8 8 9 10 10 9 8 7 5 4 3 3 2 3 4 5 5 5 3 2 8 13 15 16 16 10 5 4 3
4 5 5 7 11 14 16 18 19 21 23 24 24 24 23 22 22 22 21 19 19 18 17 15 12 11 10 9 8 7 7 7 6 6 6 6 5 5 3 2 3 5 8 8 7 5 5 6 5 4 4 5 5 5 6 7 9 10 10 10 10 9 7 6 5 4 3 2 2 2 3 3 4 5 4 2 7 12 15 15 13 11 9 6 3
5 5 5 7 11 13 16 18 19 21 22 23 24 24 23 22 22 23 22 22 21 20 18 17 14 12 11 10 9 8 7 6 6 6 6 6 5 5 4 3 4 5 9 9 6 4 5 5 4 3 4 5 4 5 6 8 9 10 10 9 9 8 7 5 4 4 3 2 2 2 2 2 3 4 4 1 4 10 13 13 12 11 9 7 6
5 5 5 7 11 14 16 18 19 21 22 23 24 24 24 23 23 24 24 24 22 21 19 18 16 14 13 12 10 9 8 7 6 6 7 6 6 5 5 4 4 6 8 8 5 4 4 3 3 3 3 4 4 5 6 9 10 10 9 8 8 7 6 5 5 4 4 3 3 3 2 1 2 2 2 2 1 5 10 13 13 12 9 8 10
5 5 5 7 11 15 18 19 21 22 22 23 23 23 25 26 25 24 24 24 23 22 20 19 18 16 14 13 12 10 9 8 8 8 7 6 6 6 6 5 5 6 7 6 4 4 3 2 2 3 3 3 4 5 7 9 10 10 8 7 6 6 6 5 5 5 5 4 4 3 1 1 1 2 2 2 2 1 7 11 13 12 9 8 10
5 5 5 7 12 16 18 20 22 22 22 22 22 24 25 26 26 25 25 25 24 23 21 20 19 17 16 15 13 12 10 9 9 9 8 6 6 7 7 6 5 5 6 5 5 4 3 2 2 3 3 3 4 6 7 9 10 9 7 6 6 6 6 5 5 6 5 5 4 3 2 2 2 3 4 3 3 3 4 8 12 13 10 8 10
6 6 5 7 10 13 15 17 18 19 21 22 23 24 25 25 25 25 25 25 25 24 22 21 20 19 17 15 14 14 12 10 10 10 9 7 7 8 8 7 6 5 5 5 5 4 4 3 3 3 3 3 4 6 7 8 8 8 7 6 6 6 6 6 5 6 5 5 5 3 2 3 3 4 5 6 5 4 4 6 10 12 10 10 11
2 2 3 4 6 9 11 13 15 18 20 20 21 22 23 24 24 25 26 26 26 25 23 22 21 20 19 17 16 15 13 11 11 11 10 9 8 9 9 7 6 5 5 5 5 4 3 3 3 3 3 3 5 6 7 7 7 6 6 7 7 7 7 6 5 5 4 5 5 4 3 3 4 5 7 7 6 3 2 5 9 11 11 12 12
3 1 1 3 5 7 9 12 14 17 18 19 19 20 21 23 24 25 27 26 26 25 24 23 22 21 20 18 17 17 15 13 12 12 11 9 10 10 9 8 7 5 5 5 5 4 3 3 2 3 3 4 5 5 6 6 6 6 7 9 10 10 9 7 5 3 3 3 4 4 4 4 4 6 7 7 5 1 3 7 10 12 13 13 12
1 1 2 3 6 7 10 13 15 17 18 18 18 19 21 24 25 26 27 26 25 25 24 24 23 22 21 20 19 18 16 14 14 13 11 10 11 11 10 8 7 6 5 5 5 5 3 2 3 3 4 4 4 5 6 6 6 7 8 10 12 11 9 6 3 2 1 2 4 4 4 4 4 4 5 5 3 3 7 9 12 12 12 11 11
3 3 3 4 5 7 10 13 14 15 16 16 17 20 23 25 26 26 26 26 25 25 25 25 24 23 22 21 20 19 18 16 15 14 12 11 12 12 11 9 7 6 5 5 6 6 5 4 4 5 5 4 3 4 5 6 6 7 10 11 11 8 5 2 2 1 0 1 3 3 4 4 3 3 4 4 3 5 8 10 11 11 10 10 9
5 3 1 2 3 6 11 16 17 18 18 17 20 23 24 25 26 26 25 25 25 24 24 25 25 24 23 22 21 20 19 17 16 15 13 13 14 13 12 9 8 7 6 6 6 7 6 5 6 7 6 4 3 4 5 5 6 8 10 9 7 5 3 2 2 2 1 1 2 2 3 4 3 2 3 4 4 5 7 8 8 8 8 9 9
3 4 4 3 2 5 9 13 17 20 19 19 22 25 25 24 25 25 24 24 24 23 24 24 25 25 24 23 22 22 21 19 17 16 15 15 15 14 12 10 9 8 7 6 6 7 6 5 6 7 7 5 3 4 4 4 5 7 8 6 4 4 3 4 4 3 3 2 2 2 3 4 3 2 3 4 4 5 5 6 7 7 7 8 10
6 7 6 6 5 5 8 11 13 15 17 18 21 24 24 23 23 22 22 23 23 23 23 24 25 25 26 24 23 23 22 20 18 18 18 17 17 15 14 12 10 9 8 7 6 7 6 6 7 8 8 6 4 4 3 3 4 6 6 4 2 3 4 5 5 5 5 4 4 4 5 4 4 4 3 3 4 4 4 5 7 7 7 7 9
6 6 6 6 6 8 10 14 15 13 13 14 17 20 21 21 21 20 20 21 22 23 23 24 25 26 26 25 24 24 24 22 20 20 20 19 18 17 15 14 12 11 10 8 7 7 7 6 7 8 9 7 5 5 4 2 2 4 4 2 1 4 5 5 6 6 7 7 7 7 7 7 6 5 5 4 4 5 4 5 6 6 4 4 6
5 6 6 6 7 9 11 14 17 16 12 11 14 16 17 17 18 18 19 20 21 23 23 24 26 26 26 26 25 26 25 23 22 22 21 20 20 19 18 16 14 13 12 10 9 9 9 8 8 9 9 7 6 6 5 4 2 1 2 1 2 4 5 6 6 7 8 8 8 8 8 7 7 6 6 6 6 6 6 6 6 5 3 2 2
5 5 6 6 6 8 11 14 17 18 15 11 12 13 14 15 15 16 17 18 20 22 23 24 25 25 26 26 26 27 26 25 24 24 23 22 22 21 20 18 17 16 14 13 12 11 11 10 9 9 9 7 6 7 7 6 5 3 1 2 4 4 4 5 5 6 8 8 8 8 8 7 7 6 5 5 6 6 6 6 5 4 3 2 3
6 6 6 6 7 9 12 14 15 17 16 12 10 11 13 12 12 13 15 17 19 21 22 24 24 25 26 26 27 27 27 27 26 25 24 24 24 24 22 21 19 18 17 15 13 13 13 12 12 11 10 8 7 7 8 8 7 6 4 4 5 5 3 3 4 6 7 8 8 8 8 8 8 6 5 4 4 4 4 4 4 4 3 3 3
6 6 6 7 9 13 16 17 16 17 17 14 10 9 10 10 10 12 14 16 19 21 22 23 24 25 26 26 27 28 28 29 28 27 26 27 27 26 24 22 21 20 20 18 16 15 15 14 14 13 12 10 9 8 8 9 10 9 7 6 6 6 4 2 3 5 6 7 7 7 7 9 9 8 6 4 4 4 4 4 4 5 5 4 4
5 6 6 9 12 15 18 19 20 20 18 15 12 10 9 9 10 11 13 15 18 20 22 23 24 25 25 26 27 28 29 30 30 29 28 29 29 28 26 24 23 22 22 20 18 17 17 16 16 15 14 12 11 9 9 10 12 11 10 9 8 7 5 4 4 4 5 6 6 6 7 9 9 9 8 6 5 5 6 7 8 9 9 9 9
8 8 9 11 13 14 16 18 19 21 20 18 15 11 9 9 10 11 13 14 17 19 21 23 24 25 26 27 28 29 30 31 31 30 30 30 31 30 28 27 25 24 23 21 20 19 18 17 18 17 16 15 13 11 10 12 14 14 14 13 11 9 7 5 5 5 5 6 6 5 5 7 9 9 8 6 5 5 6 9 12 13 13 13 13
12 13 13 13 13 14 16 17 18 19 19 19 18 14 10 8 9 12 13 14 16 19 21 23 24 26 27 28 29 30 30 31 31 31 32 33 33 33 31 29 27 26 25 24 22 20 18 18 19 19 18 17 15 12 11 12 15 17 17 16 14 12 9 7 6 6 5 5 5 4 4 5 6 8 8 6 5 5 7 11 13 14 15 15 15
15 16 17 17 17 16 16 16 16 18 18 17 17 15 12 10 9 10 12 14 17 19 21 23 25 26 27 28 30 31 31 32 32 34 35 35 34 33 32 30 29 28 27 26 23 20 19 19 20 20 19 18 17 14 12 13 17 19 19 19 17 15 12 10 9 8 7 6 6 6 5 4 4 6 7 7 6 5 6 10 12 14 14 14 13
19 19 20 21 21 20 17 15 16 17 17 17 16 15 13 12 10 9 11 15 18 20 21 22 24 25 26 28 29 30 31 32 33 36 35 32 30 30 28 27 28 27 26 25 23 21 20 20 21 20 20 19 18 16 14 14 17 20 21 21 20 18 16 14 12 11 10 9 8 9 8 6 5 5 6 6 6 5 5 7 10 11 12 11 10
22 23 23 23 24 23 19 16 17 18 17 16 16 15 14 13 12 10 12 16 18 20 20 21 22 23 24 27 28 29 31 32 34 36 32 29 31 31 28 27 29 29 27 26 24 23 22 21 21 21 21 21 19 17 15 16 18 21 22 23 23 22 20 17 15 14 13 12 11 11 11 10 8 7 6 6 6 5 4 5 7 8 8 9 8
16 20 22 24 27 26 22 18 16 16 16 15 14 15 16 15 14 13 16 19 21 21 19 19 20 21 23 26 27 29 31 32 33 34 30 29 32 33 30 30 31 30 29 28 26 25 23 22 22 23 23 22 21 18 17 16 19 21 23 24 25 25 22 20 18 16 15 15 14 13 13 13 12 11 9 8 8 7 5 5 5 5 5 6 6
15 15 16 18 22 25 25 22 18 14 13 13 13 13 14 15 15 16 18 21 22 21 20 18 17 19 22 24 26 28 29 30 31 32 31 30 31 31 32 32 32 31 31 30 28 27 26 24 24 24 25 24 23 21 18 17 19 22 24 24 25 25 23 21 19 18 17 17 16 14 13 14 14 13 12 11 10 10 8 7 6 6 6 5 4
16 14 13 11 10 12 14 16 14 11 11 12 12 12 12 13 15 16 18 19 18 18 19 18 17 18 20 23 25 27 28 29 30 31 32 32 31 30 31 32 32 31 29 28 28 28 27 26 26 26 27 26 25 23 21 19 20 22 24 25 24 24 23 23 21 19 17 17 16 15 14 14 14 14 13 12 12 12 11 9 9 9 9 6 5
14 14 13 10 10 12 10 8 7 8 9 11 12 13 13 14 15 16 17 17 17 16 16 17 18 19 20 22 24 26 27 29 30 30 31 31 30 30 30 31 32 31 28 27 27 27 27 27 28 28 29 28 27 26 24 22 21 22 24 25 25 24 24 23 21 19 16 15 15 15 15 15 15 16 15 13 13 13 12 11 11 12 12 8 6
12 12 11 10 10 11 10 9 7 8 9 10 11 11 12 14 15 15 16 17 18 17 16 16 17 19 20 21 22 24 26 28 28 29 31 31 30 30 30 30 30 30 29 29 28 27 27 29 30 30 31 31 30 29 27 25 23 23 24 25 26 25 25 24 23 20 16 14 13 13 14 15 15 16 17 16 15 14 13 12 13 15 14 11 8
11 12 13 13 12 12 13 14 13 13 14 14 13 12 13 15 15 15 15 16 17 18 18 17 17 18 20 21 22 22 24 26 27 28 30 30 30 31 31 30 30 30 31 30 29 29 31 32 31 32 32 32 32 31 30 28 26 26 26 26 27 27 26 26 24 20 17 15 13 12 14 16 16 17 18 18 18 16 15 14 15 16 17 14 11
16 16 17 17 17 17 18 18 18 18 19 19 18 17 17 18 18 17 15 15 15 16 18 18 18 18 18 19 21 22 22 23 24 25 26 26 27 28 29 29 30 31 31 31 31 31 31 31 31 32 32 32 32 33 33 32 31 30 29 29 29 29 29 28 26 23 21 19 17 15 14 16 17 18 18 19 19 18 16 16 16 17 17 15 13
19 19 18 18 18 19 19 20 20 21 21 20 18 18 19 19 20 20 19 18 17 17 18 19 19 19 18 18 20 22 21 20 21 23 24 25 26 27 29 30 32 33 33 33 33 34 34 34 34 33 31 30 32 35 36 36 35 34 33 32 32 33 32 31 30 27 25 22 21 19 17 17 19 20 21 20 20 19 17 17 17 18 17 16 14
20 20 20 19 19 20 20 21 21 21 21 20 19 19 20 21 22 22 21 21 21 21 20 20 21 21 21 20 20 20 21 20 20 21 24 26 27 29 31 33 35 35 35 35 35 36 38 39 37 35 33 32 33 36 37 37 37 36 35 34 34 34 35 34 32 29 27 25 24 22 21 21 22 22 23 22 21 20 19 18 18 18 18 17 16
21 22 23 23 22 22 23 24 23 21 20 21 21 20 21 22 23 24 22 22 22 22 22 22 21 21 22 21 21 21 21 20 19 21 23 24 25 27 30 32 33 34 34 35 36 37 37 37 37 37 36 35 33 33 32 33 35 36 35 34 34 33 33 34 32 29 28 27 26 25 24 24 25 25 25 25 24 22 21 20 20 19 19 20 19
20 20 23 25 25 25 25 26 26 24 21 21 22 22 22 23 24 25 24 23 22 22 23 24 24 23 23 22 21 21 20 19 20 22 24 24 25 26 28 31 32 32 32 33 35 36 36 35 36 37 36 35 34 31 29 30 32 33 35 35 34 32 32 33 33 32 30 29 28 28 27 27 27 27 27 27 26 25 25 23 22 21 21 22 21
Wind_Direction
263 256 247 252 254 234 221 228 208 155 134 127 124 122 118 106 92 81 73 73 85 95 111 126 107 56 59 89 94 79 71 60 48 38 27 23 20 17 17 18 16 17 19 19 18 16 15 12 11 12 11 12 13 13 10 4 0 349 333 319 313 314 311 312 318 321 112 104 90 81 79 78 78 80 82 83 88 95 101 107 110 110 103 93 87
267 254 247 251 255 240 227 229 224 196 155 133 126 125 119 103 88 86 78 70 69 64 60 51 35 16 346 106 127 113 84 67 55 44 31 21 17 14 14 15 15 17 18 18 18 15 13 10 8 7 6 6 7 6 1 356 359 360 356 348 339 333 330 329 329 322 113 124 112 85 72 71 72 72 71 70 71 74 79 84 84 82 79 77 78
247 239 242 246 249 241 232 228 226 220 186 148 139 139 133 111 93 99 87 64 54 45 35 31 28 16 328 250 171 151 100 73 61 49 40 27 22 20 18 17 18 21 22 20 19 17 14 11 9 7 3 2 2 3 3 359 356 358 358 354 343 337 334 326 325 325 322 138 137 121 60 67 62 57 57 58 60 63 66 69 68 68 68 70 71
232 228 230 235 239 237 230 227 227 220 205 190 177 175 166 134 110 116 97 50 38 33 30 33 32 28 101 165 165 151 107 81 59 41 38 29 28 28 26 22 18 19 20 18 17 15 13 11 10 9 6 2 360 0 3 3 1 357 353 346 338 333 330 319 317 323 317 256 149 112 88 112 48 29 46 51 56 60 60 64 66 67 68 68 67
214 220 218 219 225 227 222 222 226 218 210 209 200 199 195 157 127 133 132 56 27 21 23 22 5 351 135 148 148 133 114 99 75 59 54 36 31 29 24 20 13 12 13 12 12 10 9 9 7 7 6 3 2 1 1 1 1 0 358 353 345 335 328 320 315 323 330 304 228 165 109 93 192 189 78 52 55 60 61 66 69 72 73 72 71
205 217 217 214 218 222 218 216 220 215 211 212 212 215 209 182 164 174 171 156 322 334 340 334 324 301 213 165 149 134 132 132 122 115 89 54 53 41 21 9 5 5 5 5 5 4 5 7 7 6 5 4 4 4 3 4 3 3 3 0 355 345 333 327 319 316 329 345 324 267 252 248 184 164 132 62 68 73 74 72 72 75 75 73 70
200 211 212 215 215 216 217 214 213 212 211 214 217 223 219 200 193 198 197 215 257 297 303 283 272 263 245 202 166 141 137 144 134 126 112 97 103 85 31 6 1 1 2 1 0 1 2 4 6 7 9 9 10 10 10 11 10 7 4 1 359 354 344 337 332 324 321 345 352 344 330 240 185 166 147 153 117 86 90 89 86 82 78 74 71
195 199 203 212 213 213 217 215 210 208 210 218 224 230 230 213 199 199 206 226 244 271 281 262 251 246 238 232 239 269 328 131 138 131 129 132 133 113 51 11 3 4 5 4 0 1 2 3 6 9 13 16 16 17 15 14 13 10 7 3 1 357 354 351 346 340 331 334 352 12 20 201 197 195 177 161 143 128 117 100 94 89 83 79 76
196 200 199 207 212 215 218 216 212 208 209 220 228 233 234 225 210 207 213 225 232 250 260 248 245 247 238 238 247 242 236 172 171 175 169 167 172 128 9 357 2 3 3 1 358 358 2 7 9 10 15 20 23 24 22 20 17 15 11 8 5 359 357 356 356 358 350 344 353 12 44 75 194 244 181 141 114 138 143 119 106 93 83 80 81
199 204 204 206 211 214 217 217 214 211 212 221 230 232 230 226 220 214 216 220 221 235 245 234 234 240 232 223 217 206 212 235 229 217 205 204 213 231 298 316 343 350 349 349 351 351 355 5 8 7 9 13 17 21 23 23 20 18 15 13 12 5 2 360 359 8 6 3 7 6 40 67 55 287 187 86 75 104 132 137 131 108 90 80 81
197 204 209 209 210 213 215 216 214 212 216 223 231 232 227 225 223 219 219 217 215 225 229 226 230 233 223 210 209 218 237 243 232 223 220 220 222 231 248 259 295 329 333 336 344 346 348 359 1 357 357 355 359 6 11 14 11 11 10 10 14 11 8 1 356 6 14 21 26 24 44 69 101 181 201 163 131 141 142 136 122 111 107 97 85
191 199 207 202 197 201 208 213 212 211 217 224 228 230 228 226 224 222 221 216 216 222 223 226 230 229 225 220 220 232 243 239 231 229 231 228 225 229 238 250 279 312 321 325 337 341 342 354 356 348 344 343 347 356 2 5 2 1 1 2 7 9 10 2 351 356 9 22 31 37 45 50 69 85 200 185 177 173 149 129 116 109 104 104 97
188 194 201 194 189 193 200 207 208 209 214 220 224 226 227 226 224 224 225 221 219 221 222 227 230 227 228 232 235 240 243 241 239 241 242 235 229 232 243 260 290 311 315 319 330 334 338 352 354 346 338 337 341 350 358 2 358 358 359 360 2 7 10 5 355 353 1 15 25 32 36 35 45 34 353 185 184 175 146 123 119 115 112 118 109
192 194 195 197 198 199 201 204 205 208 212 216 220 224 225 224 223 225 227 223 221 222 223 226 229 226 226 231 235 240 248 254 258 258 251 238 232 237 253 273 297 307 307 316 325 326 337 353 351 345 340 332 336 344 351 356 358 356 358 359 359 2 5 2 357 353 352 5 16 19 24 28 33 21 5 109 175 167 149 133 115 103 108 117 107
198 201 201 207 208 206 206 206 206 209 211 214 218 222 224 224 224 225 227 224 222 223 225 226 228 227 224 226 233 244 253 260 262 256 245 234 230 236 250 270 293 301 306 319 325 323 336 351 346 339 338 334 340 347 347 352 356 355 352 350 347 346 347 348 352 352 345 348 357 4 14 19 19 19 19 79 179 176 163 152 143 126 102 92 92
205 209 212 214 215 214 213 211 211 212 212 214 217 220 224 224 224 225 227 226 225 226 226 227 229 230 226 226 236 245 248 253 249 231 225 225 224 230 239 261 297 316 323 326 328 326 333 345 343 334 334 341 354 1 358 357 355 349 344 340 336 335 335 335 341 350 352 353 350 345 359 12 9 5 23 136 183 190 183 169 162 157 139 109 102
216 216 219 221 219 220 221 219 217 216 215 216 218 221 224 224 224 225 226 226 227 228 228 227 228 229 227 227 233 240 243 249 244 225 218 217 215 221 230 264 301 322 331 328 326 325 330 340 342 333 334 348 2 8 3 358 351 343 338 337 337 339 336 332 338 346 352 359 348 331 346 6 7 360 10 132 182 190 185 178 173 163 149 142 130
218 225 227 228 226 225 227 227 225 223 222 222 223 224 226 226 226 226 226 226 226 227 227 227 227 226 226 226 228 232 238 245 240 224 220 217 216 224 232 258 292 317 328 325 316 309 320 332 335 330 334 339 345 352 354 354 349 339 334 335 342 344 338 336 346 346 345 347 332 326 347 7 11 4 7 50 178 190 190 189 188 178 170 169 150
212 222 224 226 227 228 229 230 231 230 230 229 228 227 227 228 229 229 230 230 228 228 227 226 226 226 227 226 226 230 235 240 234 222 219 219 224 235 238 250 280 312 323 320 302 280 295 315 320 321 330 330 330 342 351 354 349 337 330 333 343 345 335 338 355 355 350 347 332 332 356 31 33 12 7 27 102 188 198 201 202 202 209 200 159
211 214 218 222 225 228 230 232 234 234 234 234 232 231 230 230 231 231 232 231 229 228 227 226 226 225 225 223 223 227 233 238 235 225 220 223 231 237 239 249 276 302 312 310 286 257 266 297 305 311 325 329 330 343 351 351 347 337 329 330 340 345 338 339 357 0 357 357 346 345 16 69 64 15 349 345 359 205 202 205 210 214 217 209 166
213 211 215 222 225 229 231 233 235 237 237 237 236 234 233 232 231 232 231 229 228 227 227 229 227 225 223 222 222 223 227 232 231 224 223 229 234 232 231 244 265 286 297 292 269 244 248 280 293 297 306 311 325 342 348 346 344 339 333 331 337 344 340 341 352 355 2 7 3 4 35 60 46 4 346 327 307 281 234 212 211 214 205 194 171
212 210 214 221 229 234 237 238 239 238 238 238 237 236 233 232 231 232 231 230 229 229 229 230 228 225 224 223 225 224 224 227 226 222 224 231 233 227 226 235 250 270 281 275 262 244 245 266 283 285 279 296 326 339 341 340 341 340 338 337 338 340 340 341 344 348 2 16 14 17 33 50 38 11 4 352 324 289 261 218 200 204 194 179 172
243 219 228 236 244 247 247 246 244 243 242 241 240 238 235 234 233 231 231 231 231 231 231 230 228 227 224 222 225 225 223 227 227 223 224 230 230 224 224 233 241 258 273 270 261 250 253 272 281 271 263 297 326 332 333 334 336 339 340 338 335 333 330 330 334 342 2 17 16 17 29 53 42 16 11 3 347 320 244 201 181 184 181 171 168
357 40 206 237 247 242 238 242 244 246 246 243 242 242 240 238 236 233 233 233 232 231 230 229 229 228 224 221 222 223 223 229 230 224 223 227 227 222 223 230 237 253 267 264 255 251 267 285 268 248 259 296 321 329 333 330 328 332 333 330 327 324 317 308 310 325 347 9 13 17 24 39 34 16 13 7 1 61 158 166 161 164 169 164 159
301 183 181 216 240 236 231 236 239 241 243 241 241 242 242 240 238 236 235 234 233 231 230 229 229 227 223 220 220 221 224 229 230 225 223 224 221 218 220 227 236 250 259 257 253 256 270 272 244 244 261 286 318 337 340 331 323 325 326 324 323 322 314 294 276 292 334 8 11 15 24 25 19 15 23 28 46 128 148 153 153 154 158 157 156
274 236 200 222 256 264 260 258 252 246 242 240 245 247 244 242 240 238 236 235 234 233 230 229 227 225 222 219 219 221 224 228 229 226 222 220 216 214 218 225 232 241 250 251 253 255 258 249 236 242 250 267 310 339 345 334 323 324 328 328 328 330 327 284 218 203 79 28 20 23 29 29 22 29 46 60 102 138 146 148 149 150 153 155 156
282 279 232 246 262 263 270 274 273 266 252 242 249 252 245 241 240 238 235 235 235 233 230 228 226 223 220 218 219 222 224 228 229 226 221 217 214 214 217 222 225 231 240 248 249 247 246 238 231 234 238 250 297 330 342 339 328 330 334 337 344 358 28 109 141 132 114 74 51 46 41 38 39 62 78 86 110 134 141 143 144 146 151 152 149
347 11 14 346 296 257 266 273 275 275 264 246 244 249 247 242 241 238 234 233 233 231 228 226 224 221 219 219 222 224 225 227 227 224 219 216 214 215 215 217 219 225 237 247 245 240 235 223 221 228 233 241 278 308 328 340 337 340 344 348 7 35 74 104 114 114 108 103 88 76 68 61 62 91 108 106 115 128 133 135 137 142 148 147 146
31 22 4 350 338 314 307 302 295 287 272 250 238 241 245 244 242 239 235 233 231 228 226 224 222 220 219 221 224 223 222 224 224 220 218 216 216 215 213 212 216 222 232 242 240 236 231 218 217 227 233 239 263 281 299 330 342 348 350 351 36 64 85 96 101 105 100 96 95 92 92 88 83 99 119 131 138 138 136 136 139 143 147 147 148
26 8 352 348 336 320 322 324 322 313 287 258 239 236 239 242 241 238 235 232 229 225 223 221 221 222 222 222 222 219 218 221 222 219 218 216 215 214 212 210 214 218 224 233 234 229 225 220 221 228 231 236 251 258 260 277 317 349 350 328 114 96 97 94 95 101 100 98 99 97 94 90 88 94 105 124 138 138 137 137 136 139 139 142 156
358 345 337 332 326 326 335 337 336 331 312 275 253 244 241 242 241 237 235 233 228 224 221 221 222 223 222 221 219 216 216 220 222 220 218 216 213 213 213 211 212 214 218 226 229 222 214 213 220 227 230 235 245 245 244 246 248 311 336 265 178 129 113 104 97 99 101 102 104 104 102 96 93 95 101 112 121 125 129 129 130 132 125 122 177
317 314 318 319 323 334 338 340 342 342 334 306 275 257 247 243 240 239 238 234 230 226 222 222 225 225 223 220 218 216 216 219 221 219 217 214 212 213 212 211 211 212 214 220 222 215 208 207 214 222 227 233 242 243 239 235 229 227 248 229 200 168 135 116 103 98 97 97 98 102 106 104 100 99 105 118 126 130 137 141 148 162 173 190 208
293 291 299 308 321 334 336 339 348 352 349 335 300 269 259 253 245 241 237 233 230 228 225 224 226 225 224 222 219 218 218 218 220 220 216 213 211 212 213 213 212 211 213 216 216 210 207 209 214 220 227 231 236 240 238 230 223 214 210 217 212 196 166 131 114 105 100 96 92 93 96 95 94 94 100 119 137 147 155 164 179 194 201 200 197
287 283 289 313 332 342 344 346 351 354 355 355 337 303 281 268 256 244 237 232 230 228 226 226 226 226 226 223 220 219 219 220 220 219 215 212 212 213 214 214 213 212 212 213 213 210 209 212 216 219 227 232 232 236 237 229 220 212 207 211 213 206 193 168 139 118 106 97 91 90 94 92 89 87 85 90 110 131 143 147 148 145 136 131 126
326 316 311 327 337 340 343 347 350 350 353 357 353 336 307 281 264 251 240 234 231 229 228 228 227 227 227 225 223 222 221 221 219 217 215 213 214 215 215 215 214 214 215 215 214 214 214 215 218 220 225 229 229 233 236 227 217 210 206 207 209 208 203 195 171 140 117 104 95 93 99 99 95 89 85 83 91 111 127 129 124 118 114 112 107
341 334 326 333 339 339 341 346 349 351 353 353 352 345 323 294 270 254 246 239 233 230 230 229 228 227 227 226 226 224 222 221 220 218 215 214 214 215 215 215 215 215 217 217 217 218 220 219 218 220 225 228 227 230 233 226 216 210 207 207 208 208 208 205 189 163 137 118 109 107 109 108 102 95 91 91 98 115 128 127 120 114 111 108 105
339 347 350 352 354 352 352 352 353 358 360 355 350 345 329 303 274 257 249 241 235 232 232 231 231 230 228 228 227 225 223 222 220 218 218 217 216 216 216 215 214 213 215 217 217 219 223 224 220 220 223 225 226 228 230 224 215 211 209 208 208 210 210 209 200 182 163 146 138 139 136 127 116 107 104 105 110 124 133 128 123 118 114 110 105
340 348 353 353 352 351 353 355 358 4 8 1 353 345 333 313 289 267 253 243 239 239 237 235 236 236 233 231 229 226 225 223 221 222 222 220 217 215 214 214 215 215 216 217 217 219 224 226 224 223 223 224 225 228 229 223 216 213 212 211 211 212 212 211 207 196 184 175 173 176 178 170 144 125 119 118 120 129 136 135 131 125 118 114 109
341 342 340 339 338 337 341 354 2 4 5 4 357 348 334 315 300 283 264 253 249 249 246 243 243 242 239 236 232 228 226 224 226 228 225 219 217 216 215 217 220 221 221 220 219 219 223 226 227 225 223 223 225 228 229 224 217 214 215 215 214 214 214 214 212 207 200 194 193 195 197 197 188 166 148 138 136 138 140 142 141 134 126 122 117
343 344 339 339 340 336 334 346 356 357 0 4 360 351 339 323 310 293 274 269 271 271 266 258 254 249 244 241 236 231 229 227 230 231 225 219 220 220 218 221 224 223 222 222 220 221 223 226 228 226 222 222 223 225 228 226 220 216 216 217 217 217 218 218 217 216 212 207 204 205 205 205 205 200 190 176 167 162 163 164 160 149 138 132 128
335 342 342 347 348 342 337 342 351 355 360 7 6 356 345 334 320 302 292 294 295 291 283 274 264 254 248 245 240 236 233 232 232 231 225 220 222 220 217 221 222 220 219 219 219 221 222 224 227 226 223 222 222 224 226 226 222 218 217 218 220 222 222 222 221 222 222 219 216 214 211 208 207 207 208 207 200 193 193 199 195 174 151 137 136
315 323 332 346 348 343 341 343 350 360 5 8 10 3 354 344 329 319 318 316 311 303 297 291 278 262 253 248 245 242 238 234 232 229 225 223 222 219 217 219 219 218 217 215 215 217 219 221 225 226 224 223 223 223 225 226 224 220 219 220 222 224 225 225 224 224 226 227 225 223 220 215 210 207 209 214 215 212 212 216 215 197 177 166 166
307 312 320 336 330 317 320 328 339 0 12 9 9 6 1 354 344 342 341 336 327 317 308 301 290 277 264 254 249 246 241 235 231 229 227 224 221 218 215 215 215 215 213 211 212 214 216 217 220 223 224 224 223 222 223 225 225 223 221 222 223 223 224 225 224 226 230 232 229 225 224 221 215 210 210 212 213 217 219 219 215 207 198 192 192
314 321 325 325 301 286 292 313 342 12 15 8 7 3 357 353 351 351 349 344 341 336 321 307 297 286 275 265 256 249 243 237 232 229 226 223 220 217 214 212 213 211 209 209 212 213 213 215 218 221 223 223 221 221 222 223 225 224 224 223 222 221 222 223 225 230 235 235 231 226 223 223 219 214 212 213 211 213 216 214 213 214 211 206 207
322 330 332 329 318 315 326 339 357 16 13 6 7 1 353 352 355 353 347 341 339 336 328 318 305 291 281 273 262 253 247 241 234 228 225 222 219 215 212 211 211 209 208 210 211 210 214 218 219 220 222 223 221 220 220 221 223 224 225 224 222 219 218 219 223 230 233 230 229 227 223 222 221 217 214 213 213 214 216 214 215 218 219 217 220
337 343 346 345 346 350 352 349 352 1 1 357 356 352 347 347 351 351 346 338 333 329 325 321 313 300 287 275 264 256 250 244 237 232 228 224 220 215 212 210 210 209 209 209 208 210 215 218 219 221 224 223 221 220 219 219 220 221 223 223 222 220 219 219 223 229 230 226 225 226 223 219 218 218 217 217 218 220 222 219 217 221 223 224 224
351 353 356 358 359 359 356 352 351 353 353 351 350 350 348 346 348 349 344 335 328 323 318 316 314 308 295 278 266 260 253 244 237 232 228 226 223 219 214 210 208 207 207 207 208 211 213 215 217 221 223 222 220 220 219 218 217 218 219 220 220 219 218 219 221 224 225 224 224 224 222 219 217 218 219 221 223 224 224 221 218 220 224 225 224
358 0 4 7 7 4 358 353 353 355 357 356 355 357 357 354 354 354 350 341 334 325 316 310 307 304 297 283 269 260 253 244 235 229 227 225 222 219 217 217 217 214 210 209 209 211 215 217 219 219 219 218 217 218 219 219 218 217 216 216 217 217 217 218 218 218 218 222 225 225 221 216 215 217 218 220 222 223 222 220 218 218 220 220 218
2 3 6 8 8 4 359 355 355 359 3 3 3 3 4 3 1 357 353 347 341 334 323 314 308 303 298 289 274 262 252 242 235 232 232 231 228 225 223 225 226 226 225 223 220 218 221 224 223 221 217 212 212 219 224 224 222 220 217 216 216 217 217 217 217 216 215 217 221 222 219 215 213 214 216 218 219 219 218 218 217 216 216 215 214
4 3 4 4 4 2 359 356 354 354 356 360 2 1 0 2 2 1 357 352 345 338 331 324 318 311 305 296 283 268 254 243 240 240 239 238 238 236 235 233 232 232 233 233 232 233 234 232 229 228 226 223 226 234 236 231 226 224 223 222 222 221 220 218 216 214 214 216 218 218 217 216 214 213 215 217 217 216 215 215 216 215 214 215 215
358 360 359 357 355 356 356 356 355 352 349 348 352 356 357 357 358 359 358 355 350 343 334 329 326 320 314 306 293 277 261 249 249 250 245 241 240 239 240 242 242 239 237 235 234 238 240 238 236 236 235 236 240 244 243 238 232 228 225 225 224 223 222 220 217 212 210 213 216 216 216 216 215 215 217 218 218 217 216 216 215 214 215 216 216